Terug naar catalogus

BREEZE-M R/B

ActiefHEO
NORAD 28394·ROCKET BODY·🇷🇺 Russia

Gelanceerd Aug 4, 2004 vanaf Baikonur Cosmodrome

Loading…

Volgende Passages (komende 24 uur)

TLE

VersSource: Space-Track

Epoch: Sep 14, 2026, 18:40 UTC

1 28394U 04031B   26257.77799025 -.00000183  00000-0  00000-0 0  9995
2 28394   9.1829  70.0395 6266146   8.7539 358.4040  2.10291647169916

Volg BREEZE-M R/B in realtime met AllMySat

Download on the App Store